Location: Unspecified
(0.0000°N, 0.0000°E)
Time: 12:38:57
(UTC+00:00)

RS-15 - Pass Details

Date: 17 December 2017
Orbit: 1889 x 2156 km, 64.8° (Epoch: 23 April)

Event Time Altitude Azimuth Distance (km) Brightness Sun altitude
Exits shadow 00:21:15 13° 133° (SE) 4,051 9.8 -65.9°
Drops below altitude 10° 00:22:04 10° 135° (SE) 4,273 10.0 -65.8°
Sets 00:25:32 0° 142° (SE) 5,267 10.6 -65.6°
